Location: Vista Encantada
(35.1109°N, 106.5681°W)
Time: 21:49:47
(UTC+00:00)

X-37B - Pass Details

Date: 21 September 2021
Orbit: 385 x 389 km, 45.0° (Epoch: 13 October)

Event Time Altitude Azimuth Distance (km) Brightness Sun altitude
Exits shadow 12:00:11 20° 264° (W) 953 1.9 -11.7°
Maximum altitude 12:02:05 49° 332° (NNW) 505 1.0 -11.4°
Drops below altitude 10° 12:05:11 10° 49° (NE) 1,414 4.4 -10.7°
Sets 12:07:19 0° 55° (NE) 2,271 5.7 -10.3°
